Regional Weather Roundup
Issued by NWS

Home | Current Version | Previous Version | Text Only | Print | Product List | Glossary On
Versions: 1 2 3 4 5 6 7 8 9 10 11 12 13 14 15 16 17 18 19 20 21 22 23 24 25 26 27 28 29 30 31 32 33 34 35 36 37 38 39 40 41 42 43 44 45 46 47 48 49 50
000
ASUS43 KLOT 240008
RWRIL

ILLINOIS REGIONAL WEATHER ROUNDUP
NATIONAL WEATHER SERVICE CHICAGO/ROMEOVILLE IL
700 PM CDT WED AUG 23 2017

NOTE: "FAIR" INDICATES FEW OR NO CLOUDS BELOW 12,000 FEET WITH NO
SIGNIFICANT WEATHER AND/OR OBSTRUCTIONS TO VISIBILITY.

* THESE STATIONS ARE NOT UNDER NWS QUALITY CONTROL. THEY ALSO MAY NOT
  REPORT WEATHER SUCH AS PRECIPITATION OR FOG.

ILZ001-002-007-009-015-016-024-240100-
NORTHWEST ILLINOIS

CITY           SKY/WX    TMP DP  RH WIND       PRES   REMARKS
MOLINE         PTCLDY    76  50  40 NW6       30.02F
6HR MIN TEMP:  76; 6HR MAX TEMP:  81;

STERLING*      CLEAR     73  55  53 NW3       30.03
SAVANNA*       CLEAR     73  51  45 N5        30.03S
$$

ILZ003-004-008-010-011-017-018-240100-
NORTH CENTRAL ILLINOIS

CITY           SKY/WX    TMP DP  RH WIND       PRES   REMARKS
ROCKFORD       PTCLDY    72  52  49 NW7       30.02F
6HR MIN TEMP:  72; 6HR MAX TEMP:  77;

FREEPORT*      CLEAR     69  53  56 NW3       30.04S
ROCHELLE*      CLEAR     71  53  52 NW5       30.03S
DE KALB*       PTCLDY    70  54  56 NW3       30.03S
PERU*          CLEAR     71  54  55 NW5       30.03S
$$

ILZ005-006-012>014-019>023-240100-
NORTHEAST ILLINOIS

CITY           SKY/WX    TMP DP  RH WIND       PRES   REMARKS
CHICAGO-OHARE  PTCLDY    72  55  55 E8        30.00S
6HR MIN TEMP:  72; 6HR MAX TEMP:  79;

CHICAGO-MIDWAY MOCLDY    70  56  61 E8        30.01S
6HR MIN TEMP:  70; 6HR MAX TEMP:  78;

AURORA         PTCLDY    70  60  70 NW5       30.02F
6HR MIN TEMP:  69; 6HR MAX TEMP:  76;

LANSING*       CLEAR     68  58  70 NE7       30.01S
JOLIET*        CLEAR     74  53  46 W5        30.01S
WAUKEGAN       PTCLDY    67  58  72 SE6       30.00F
6HR MIN TEMP:  67; 6HR MAX TEMP:  75;

DUPAGE AIRPORT PTCLDY    72  54  53 N7        30.00F
6HR MIN TEMP:  71; 6HR MAX TEMP:  77;

WHEELING       CLEAR     70  57  63 E3        30.02S
6HR MIN TEMP:  70; 6HR MAX TEMP:  78;

MORRIS*        CLEAR     70  57  64 NW3       30.00F
ROMEOVILLE*    PTCLDY    70  54  56 NW7       30.01S
NORTHERLY ISL    N/A     68  55  63 E5          N/A
$$

LMZ740>746-240100-
SOUTHERN LAKE MICHIGAN

STATION/POSITION SKY/WX   TEMP    WIND        PRES    VSBY  WAVE
                          AIR SEA DIR/SP/G                  HT/PER
                          (F)     (DEG/KT/KT) (MB)    (MI)  (FT/S)
SOUTHERN BUOY              67 71   40/  4/  6 1016.3          2/ 6
WILMETTE HARBOR            69 73   90/  6/ 10   N/A           2/ 5
HARRISON CRIB              69      80/  8/  9   N/A
CALUMET HARBOR             69      60/  7/  9 1015.7F
BURNS HARBOR               70      50/  9/ 12 1016.6F
MICHIGAN CITY              68      30/  7/  8   N/A
MICHIGAN CITY 6N           69 74   60/  8/ 10   N/A           3/ 4
ST. JOSEPH                 68 74   50/  8/ 10 1016.2          3/ 5
$$

ILZ025>027-034>036-040-047-049-050-058-095>099-240100-
WEST-CENTRAL ILLINOIS

CITY           SKY/WX    TMP DP  RH WIND       PRES   REMARKS
QUINCY         CLEAR     74  53  48 NE5       30.05S
GALESBURG*     CLEAR     72  54  54 NW3       30.05S
MACOMB*        CLEAR     72  56  57 N3        30.07S
JACKSONVILLE*  CLEAR     72  54  53 N5        30.05S
PITTSFIELD*    CLEAR     73  58  59 CALM      30.06F
$$

ILZ028>032-037-038-041>044-048-051>054-059>061-240100-
CENTRAL ILLINOIS

CITY           SKY/WX    TMP DP  RH WIND       PRES   REMARKS
PONTIAC        MOCLDY    71  58  63 NW5       30.03S
BLOOMINGTON    PTCLDY    72  51  47 NW12      30.04S
DECATUR        PTCLDY    74  50  42 NW8       30.03F
PEORIA         CLEAR     74  52  46 N5        30.03F
6HR MIN TEMP:  74; 6HR MAX TEMP:  79;

LACON*         CLEAR     72  55  54 CALM      30.02S
LINCOLN*       CLEAR     74  55  49 NW3       30.04R
SPRINGFIELD    PTCLDY    73  57  57 NW6       30.04F
6HR MIN TEMP:  73; 6HR MAX TEMP:  79;

TAYLORVILLE    CLEAR     70  57  63 N5        30.04F
6HR MIN TEMP:  70; 6HR MAX TEMP:  75;

$$

ILZ033-039-045-046-055>057-062-063-240100-
EAST-CENTRAL ILLINOIS

CITY           SKY/WX    TMP DP  RH WIND       PRES   REMARKS
CHAMPAIGN      CLEAR     73  51  46 NW6       30.03S
RANTOUL*       CLEAR     74  53  47 NW6       30.03S
MATTOON        CLEAR     72  57  59 NW7       30.02S
PARIS*         CLEAR     73  53  50 N5        30.03S
$$

ILZ079-100>102-240100-
SOUTHWEST ILLINOIS

CITY           SKY/WX    TMP DP  RH WIND       PRES   REMARKS
ALTON          PTCLDY    73  57  56 N8        30.04S
BELLEVILLE     CLEAR     76  56  49 N5        30.04S
CAHOKIA*       CLEAR     77  53  43 N6        30.03S
SPARTA*        CLEAR     74  54  49 N5        30.04S
$$

ILZ064>066-069>071-074>076-080>082-084>086-088>090-092>094-240100-
SOUTH-CENTRAL ILLINOIS

CITY           SKY/WX    TMP DP  RH WIND       PRES   REMARKS
CARBONDALE     CLEAR     75  56  51 N3        30.01F
6HR MIN TEMP:  75; 6HR MAX TEMP:  80;

CAIRO*         CLEAR     75  57  53 N5        30.00S
EFFINGHAM*     CLEAR     73  54  51 NW5       30.04S
MT. VERNON       N/A     74  56  53 CALM      30.02S
CENTRALIA*     CLEAR     75  57  54 N6        30.02S
SALEM*         CLEAR     74  56  52 NW3       30.03S
METROPOLIS*    CLEAR     76  57  52 N3        30.00S
$$

ILZ067-068-072-073-078-083-087-091-240100-
SOUTHEAST ILLINOIS

CITY           SKY/WX    TMP DP  RH WIND       PRES   REMARKS
LAWRENCEVILLE  CLEAR     74  56  53 N7        30.01S
FLORA*         CLEAR     74  58  55 N3        30.02S
FAIRFIELD*     CLEAR     73  57  57 CALM      30.01S
HARRISBURG*    CLEAR     75  57  53 CALM      30.01S
ROBINSON*      CLEAR     71  57  60 N5        30.02F
CARMI*         CLEAR     70  62  74 N5        30.00S
$$

ABBREVIATIONS USED IN REMARKS
   TC - TEMPERATURE IN CELSIUS
  WCI - WIND CHILL INDEX
   HX - HEAT INDEX
  VSB - VISIBILITY
$$




USA.gov is the U.S. government's official web portal to all federal, state and local government web resources and services.